Lid_Strength_Index
1 1 1 2 2 2 2 2 3 3 3 3 3 3 3 3 4 4 4 4 4 4 3 3 2 2 3 6 5 1 -1 -1 0 4 8 8 8 8 8 5 6 7 6 5 5 5 5
1 1 1 2 2 2 2 2 3 3 3 3 3 2 3 3 3 4 4 4 4 4 3 3 2 2 5 8 2 1 0 1 2 3 7 8 7 6 7 5 6 5 5 5 5 5 5
1 1 2 2 2 3 3 2 3 3 3 3 3 2 2 3 3 3 4 4 4 4 3 3 2 3 5 6 1 4 3 5 4 3 6 7 5 7 6 6 4 5 6 6 6 6 6
1 2 2 2 2 3 3 2 3 3 3 3 2 3 2 2 3 3 3 4 4 4 3 2 2 4 6 2 2 2 2 4 4 4 5 6 4 6 6 5 5 6 7 10 7 6 5
2 2 2 2 3 3 2 2 3 3 3 3 3 3 3 3 3 3 4 4 4 3 2 2 5 5 7 1 4 3 4 5 4 4 4 4 4 7 6 7 9 8 11 10 8 5 6
2 2 2 2 3 2 2 2 3 3 3 3 3 3 3 3 3 3 4 3 2 2 2 2 3 7 4 4 4 4 3 4 5 5 5 6 7 9 9 9 13 11 10 9 10 7 7
3 3 3 2 2 2 2 3 3 3 3 3 3 3 3 3 3 4 5 5 5 6 6 7 7 6 5 3 3 5 4 5 6 7 9 7 9 11 9 8 7 8 9 9 8 6 8
3 3 3 3 2 2 2 3 3 3 3 3 3 3 3 3 3 4 5 6 4 4 7 4 5 5 5 4 6 5 5 7 8 10 8 9 11 8 6 6 7 8 9 10 8 6 8
3 4 3 4 3 2 3 3 3 3 3 3 3 4 4 4 4 5 5 4 2 2 7 5 4 5 5 5 6 7 6 7 8 9 9 10 8 8 8 8 8 9 10 9 9 8 7
3 3 3 4 4 3 3 3 3 3 3 3 3 3 4 4 5 4 3 2 1 1 10 8 7 5 5 5 7 4 5 6 8 9 8 9 7 9 9 9 8 12 7 7 8 10 13
3 3 3 4 4 3 3 3 3 3 4 3 4 4 4 4 6 6 2 1 2 4 16 6 7 3 5 7 7 6 5 6 9 8 9 9 8 9 10 9 7 9 7 8 8 10 12
3 3 3 3 3 3 3 3 3 4 4 4 4 4 4 4 5 4 3 2 3 11 15 8 6 7 8 7 7 6 6 6 6 8 8 8 6 8 8 8 7 6 8 8 10 11 16
3 3 3 3 3 4 3 3 3 4 4 4 4 5 5 4 3 2 1 3 11 14 7 8 8 8 8 9 8 8 9 9 10 13 12 9 8 7 7 11 8 8 12 15 15 17 18
3 3 3 3 3 4 4 3 3 3 3 4 5 5 4 4 3 3 2 8 15 9 9 7 8 8 9 8 8 8 9 10 9 10 11 12 13 9 7 9 10 10 11 14 18 19 18
3 3 3 3 3 3 3 3 3 4 4 5 5 3 3 2 3 2 6 12 12 9 7 7 8 10 10 8 8 8 9 10 9 9 12 12 11 7 7 7 8 10 12 10 14 14 14
3 3 3 3 3 3 3 3 4 4 4 5 6 4 3 1 1 3 8 12 9 6 6 6 9 9 11 9 9 10 10 8 9 7 8 10 12 9 7 7 7 9 8 13 13 16 18
3 3 3 3 3 3 3 3 4 4 5 5 6 6 2 1 1 6 11 10 7 5 6 7 8 9 9 9 8 10 9 7 7 7 7 9 12 10 9 10 10 10 12 12 12 13 16
3 3 3 3 3 3 3 3 4 4 5 5 3 8 3 2 7 7 9 7 7 7 5 6 7 7 8 8 9 9 9 8 6 6 9 9 12 14 11 8 7 8 10 11 14 14 13
4 3 3 3 3 3 3 4 4 4 4 7 6 5 3 2 10 9 7 7 6 7 6 7 7 7 7 8 10 8 8 6 6 7 9 9 12 15 13 10 10 10 10 10 11 13 14
4 4 3 3 3 3 3 4 4 4 4 6 5 10 6 4 5 7 8 8 8 5 6 6 7 6 7 8 8 8 8 6 6 6 3 6 11 12 14 12 11 11 10 10 12 14 13
3 4 4 4 4 4 4 4 4 4 5 6 5 8 7 11 9 7 7 8 9 9 6 6 7 7 8 10 9 9 8 8 7 5 7 9 12 11 11 10 10 10 10 10 11 11 13
4 3 3 3 3 4 4 4 4 4 5 5 6 8 6 8 7 9 8 8 9 7 8 7 8 7 7 10 10 11 9 8 9 8 9 9 11 8 10 9 10 10 9 9 9 9 10
3 3 3 3 3 3 3 3 4 4 4 5 3 3 5 8 8 10 10 9 9 7 6 5 6 7 8 8 6 6 7 7 9 9 11 10 11 12 13 10 10 12 10 10 10 10 10
4 4 4 4 4 3 3 3 3 3 4 5 4 4 6 9 9 9 8 8 8 7 8 6 5 7 6 4 5 6 7 7 7 7 8 10 10 11 12 12 15 10 8 7 8 8 8
4 4 4 4 4 4 4 3 3 3 4 5 4 4 6 9 7 8 8 8 7 7 7 6 5 5 4 6 9 11 11 10 9 7 7 7 10 12 13 14 11 9 8 9 10 10 8
5 4 4 4 4 4 4 4 3 3 3 4 4 3 4 7 8 7 8 6 9 9 7 7 5 4 6 8 10 13 15 11 12 10 7 8 8 11 13 14 15 12 8 6 7 14 7
5 4 4 4 4 4 3 3 3 4 4 4 4 3 3 7 5 7 7 7 5 6 9 8 7 7 5 9 11 12 13 8 12 13 14 13 12 13 14 15 13 9 8 6 13 13 7
5 5 5 4 4 4 3 3 3 3 4 4 5 3 3 5 5 5 4 6 6 6 9 8 9 8 8 11 11 11 12 12 13 12 13 14 15 15 15 16 16 8 8 12 9 7 6
5 4 4 4 4 4 4 4 4 4 4 4 5 3 3 4 5 3 3 3 4 4 6 6 8 8 8 10 10 11 13 11 13 16 10 14 12 13 12 13 9 7 8 6 6 7 6